Retour au catalogue

KUbeSat-1

ActifScienceSSO
NORAD 60203·PAYLOAD·🇺🇸 United States

Lancé Jul 4, 2024 depuis Vandenberg Space Force Base

Loading…

Prochains Passages (prochaines 24 heures)

TLE

FraisSource: Space-Track

Époque: Sep 13, 2026, 13:16 UTC

1 60203U 24125A   26256.55337698  .00123927  00000-0  62550-3 0  9997
2 60203  97.2051 118.1799 0005832 209.5992 150.4947 15.81247981123526

Suivez KUbeSat-1 en temps réel avec AllMySat

Download on the App Store